Year,Month,Day,Hour,Minute,Value (Times are PST for temperature in C)
2010,03,23,00,00,8.40
2010,03,23,00,01,8.40
2010,03,23,00,02,8.40
2010,03,23,00,03,8.30
2010,03,23,00,04,8.30
2010,03,23,00,05,8.30
2010,03,23,00,06,8.30
2010,03,23,00,07,8.30
2010,03,23,00,08,8.30
2010,03,23,00,09,8.30
2010,03,23,00,10,8.30
2010,03,23,00,11,8.30
2010,03,23,00,12,8.30
2010,03,23,00,13,8.30
2010,03,23,00,14,8.30
2010,03,23,00,15,8.30
2010,03,23,00,16,8.30
2010,03,23,00,17,8.30
2010,03,23,00,18,8.30
2010,03,23,00,19,8.30
2010,03,23,00,20,8.30
2010,03,23,00,21,8.30
2010,03,23,00,22,8.30
2010,03,23,00,23,8.30
2010,03,23,00,24,8.30
2010,03,23,00,25,8.30
2010,03,23,00,26,8.30
2010,03,23,00,27,8.30
2010,03,23,00,28,8.30
2010,03,23,00,29,8.30
2010,03,23,00,30,8.30
2010,03,23,00,31,8.30
2010,03,23,00,32,8.30
2010,03,23,00,33,8.20
2010,03,23,00,34,8.20
2010,03,23,00,35,8.20
2010,03,23,00,36,8.20
2010,03,23,00,37,8.20
2010,03,23,00,38,8.20
2010,03,23,00,39,8.20
2010,03,23,00,40,8.20
2010,03,23,00,41,8.20
2010,03,23,00,42,8.20
2010,03,23,00,43,8.20
2010,03,23,00,44,8.20
2010,03,23,00,45,8.20
2010,03,23,00,46,8.20
2010,03,23,00,47,8.20
2010,03,23,00,48,8.20
2010,03,23,00,49,8.20
2010,03,23,00,50,8.20
2010,03,23,00,51,8.20
2010,03,23,00,52,8.20
2010,03,23,00,53,8.20
2010,03,23,00,54,8.20
2010,03,23,00,55,8.20
2010,03,23,00,56,8.20
2010,03,23,00,57,8.20
2010,03,23,00,58,8.20
2010,03,23,00,59,8.20
2010,03,23,01,00,8.20
2010,03,23,01,01,8.20
2010,03,23,01,02,8.20
2010,03,23,01,03,8.20
2010,03,23,01,04,8.20
2010,03,23,01,05,8.10
2010,03,23,01,06,8.10
2010,03,23,01,07,8.10
2010,03,23,01,08,8.10
2010,03,23,01,09,8.10
2010,03,23,01,10,8.10
2010,03,23,01,11,8.10
2010,03,23,01,12,8.10
2010,03,23,01,13,8.10
2010,03,23,01,14,8.10
2010,03,23,01,15,8.10
2010,03,23,01,16,8.10
2010,03,23,01,17,8.10
2010,03,23,01,18,8.10
2010,03,23,01,19,8.00
2010,03,23,01,20,8.00
2010,03,23,01,21,8.00
2010,03,23,01,22,8.00
2010,03,23,01,23,8.00
2010,03,23,01,24,8.00
2010,03,23,01,25,8.00
2010,03,23,01,26,8.00
2010,03,23,01,27,8.00
2010,03,23,01,28,8.00
2010,03,23,01,29,8.00
2010,03,23,01,30,8.00
2010,03,23,01,31,8.00
2010,03,23,01,32,7.90
2010,03,23,01,33,7.90
2010,03,23,01,34,7.90
2010,03,23,01,35,7.90
2010,03,23,01,36,7.90
2010,03,23,01,37,7.90
2010,03,23,01,38,7.90
2010,03,23,01,39,7.90
2010,03,23,01,40,7.90
2010,03,23,01,41,7.90
2010,03,23,01,42,7.90
2010,03,23,01,43,7.90
2010,03,23,01,44,7.90
2010,03,23,01,45,7.90
2010,03,23,01,46,7.90
2010,03,23,01,47,7.90
2010,03,23,01,48,7.90
2010,03,23,01,49,7.80
2010,03,23,01,50,7.80
2010,03,23,01,51,7.80
2010,03,23,01,52,7.80
2010,03,23,01,53,7.80
2010,03,23,01,54,7.80
2010,03,23,01,55,7.80
2010,03,23,01,56,7.80
2010,03,23,01,57,7.80
2010,03,23,01,58,7.80
2010,03,23,01,59,7.80
2010,03,23,02,00,7.80
2010,03,23,02,01,7.80
2010,03,23,02,02,7.80
2010,03,23,02,03,7.80
2010,03,23,02,04,7.80
2010,03,23,02,05,7.80
2010,03,23,02,06,7.80
2010,03,23,02,07,7.80
2010,03,23,02,08,7.80
2010,03,23,02,09,7.80
2010,03,23,02,10,7.80
2010,03,23,02,11,7.80
2010,03,23,02,12,7.80
2010,03,23,02,13,7.80
2010,03,23,02,14,7.80
2010,03,23,02,15,7.80
2010,03,23,02,16,7.80
2010,03,23,02,17,7.80
2010,03,23,02,18,7.80
2010,03,23,02,19,7.80
2010,03,23,02,20,7.80
2010,03,23,02,21,7.80
2010,03,23,02,22,7.80
2010,03,23,02,23,7.80
2010,03,23,02,24,7.80
2010,03,23,02,25,7.80
2010,03,23,02,26,7.80
2010,03,23,02,27,7.80
2010,03,23,02,28,7.80
2010,03,23,02,29,7.80
2010,03,23,02,30,7.80
2010,03,23,02,31,7.80
2010,03,23,02,32,7.80
2010,03,23,02,33,7.80
2010,03,23,02,34,7.80
2010,03,23,02,35,7.80
2010,03,23,02,36,7.80
2010,03,23,02,37,7.80
2010,03,23,02,38,7.80
2010,03,23,02,39,7.80
2010,03,23,02,40,7.80
2010,03,23,02,41,7.80
2010,03,23,02,42,7.70
2010,03,23,02,43,7.70
2010,03,23,02,44,7.70
2010,03,23,02,45,7.70
2010,03,23,02,46,7.70
2010,03,23,02,47,7.70
2010,03,23,02,48,7.80
2010,03,23,02,49,7.80
2010,03,23,02,50,7.80
2010,03,23,02,51,7.80
2010,03,23,02,52,7.80
2010,03,23,02,53,7.80
2010,03,23,02,54,7.80
2010,03,23,02,55,7.80
2010,03,23,02,56,7.80
2010,03,23,02,57,7.80
2010,03,23,02,58,7.80
2010,03,23,02,59,7.80
2010,03,23,03,00,7.80
2010,03,23,03,01,7.80
2010,03,23,03,02,7.80
2010,03,23,03,03,7.80
2010,03,23,03,04,7.80
2010,03,23,03,05,7.80
2010,03,23,03,06,7.80
2010,03,23,03,07,7.80
2010,03,23,03,08,7.80
2010,03,23,03,09,7.80
2010,03,23,03,10,7.80
2010,03,23,03,11,7.80
2010,03,23,03,12,7.80
2010,03,23,03,13,7.80
2010,03,23,03,14,7.80
2010,03,23,03,15,7.80
2010,03,23,03,16,7.70
2010,03,23,03,17,7.70
2010,03,23,03,18,7.70
2010,03,23,03,19,7.70
2010,03,23,03,20,7.70
2010,03,23,03,21,7.70
2010,03,23,03,22,7.70
2010,03,23,03,23,7.70
2010,03,23,03,24,7.70
2010,03,23,03,25,7.70
2010,03,23,03,26,7.70
2010,03,23,03,27,7.70
2010,03,23,03,28,7.70
2010,03,23,03,29,7.70
2010,03,23,03,30,7.70
2010,03,23,03,31,7.70
2010,03,23,03,32,7.70
2010,03,23,03,33,7.70
2010,03,23,03,34,7.60
2010,03,23,03,35,7.60
2010,03,23,03,36,7.60
2010,03,23,03,37,7.60
2010,03,23,03,38,7.60
2010,03,23,03,39,7.50
2010,03,23,03,40,7.50
2010,03,23,03,41,7.40
2010,03,23,03,42,7.40
2010,03,23,03,43,7.30
2010,03,23,03,44,7.30
2010,03,23,03,45,7.30
2010,03,23,03,46,7.30
2010,03,23,03,47,7.20
2010,03,23,03,48,7.20
2010,03,23,03,49,7.10
2010,03,23,03,50,7.10
2010,03,23,03,51,7.00
2010,03,23,03,52,7.10
2010,03,23,03,53,7.00
2010,03,23,03,54,7.00
2010,03,23,03,55,6.90
2010,03,23,03,56,6.80
2010,03,23,03,57,6.70
2010,03,23,03,58,6.60
2010,03,23,03,59,6.50
2010,03,23,04,00,6.40
2010,03,23,04,01,6.30
2010,03,23,04,02,6.20
2010,03,23,04,03,6.10
2010,03,23,04,04,6.00
2010,03,23,04,05,6.00
2010,03,23,04,06,6.00
2010,03,23,04,07,5.90
2010,03,23,04,08,5.90
2010,03,23,04,09,5.90
2010,03,23,04,10,5.90
2010,03,23,04,11,5.80
2010,03,23,04,12,5.80
2010,03,23,04,13,5.80
2010,03,23,04,14,5.80
2010,03,23,04,15,5.80
2010,03,23,04,16,5.80
2010,03,23,04,17,5.80
2010,03,23,04,18,5.70
2010,03,23,04,19,5.70
2010,03,23,04,20,5.70
2010,03,23,04,21,5.80
2010,03,23,04,22,5.90
2010,03,23,04,23,5.90
2010,03,23,04,24,5.90
2010,03,23,04,25,5.90
2010,03,23,04,26,5.80
2010,03,23,04,27,5.80
2010,03,23,04,28,5.80
2010,03,23,04,29,5.80
2010,03,23,04,30,5.80
2010,03,23,04,31,5.80
2010,03,23,04,32,5.80
2010,03,23,04,33,5.80
2010,03,23,04,34,5.80
2010,03,23,04,35,5.80
2010,03,23,04,36,5.80
2010,03,23,04,37,5.80
2010,03,23,04,38,5.80
2010,03,23,04,39,5.80
2010,03,23,04,40,5.80
2010,03,23,04,41,5.80
2010,03,23,04,42,5.80
2010,03,23,04,43,5.80
2010,03,23,04,44,5.80
2010,03,23,04,45,5.80
2010,03,23,04,46,5.70
2010,03,23,04,47,5.70
2010,03,23,04,48,5.70
2010,03,23,04,49,5.70
2010,03,23,04,50,5.70
2010,03,23,04,51,5.70
2010,03,23,04,52,5.70
2010,03,23,04,53,5.70
2010,03,23,04,54,5.70
2010,03,23,04,55,5.70
2010,03,23,04,56,5.70
2010,03,23,04,57,5.70
2010,03,23,04,58,5.70
2010,03,23,04,59,5.80
2010,03,23,05,00,5.80
2010,03,23,05,01,5.80
2010,03,23,05,02,5.80
2010,03,23,05,03,5.80
2010,03,23,05,04,5.80
2010,03,23,05,05,5.90
2010,03,23,05,06,5.90
2010,03,23,05,07,5.90
2010,03,23,05,08,5.90
2010,03,23,05,09,5.90
2010,03,23,05,10,6.00
2010,03,23,05,11,6.00
2010,03,23,05,12,6.00
2010,03,23,05,13,6.00
2010,03,23,05,14,6.00
2010,03,23,05,15,5.90
2010,03,23,05,16,5.90
2010,03,23,05,17,5.90
2010,03,23,05,18,5.90
2010,03,23,05,19,5.90
2010,03,23,05,20,5.90
2010,03,23,05,21,5.90
2010,03,23,05,22,5.90
2010,03,23,05,23,5.80
2010,03,23,05,24,5.80
2010,03,23,05,25,5.90
2010,03,23,05,26,5.90
2010,03,23,05,27,5.90
2010,03,23,05,28,5.90
2010,03,23,05,29,5.90
2010,03,23,05,30,5.90
2010,03,23,05,31,5.90
2010,03,23,05,32,5.80
2010,03,23,05,33,5.80
2010,03,23,05,34,5.80
2010,03,23,05,35,5.80
2010,03,23,05,36,5.80
2010,03,23,05,37,5.80
2010,03,23,05,38,5.80
2010,03,23,05,39,5.80
2010,03,23,05,40,5.80
2010,03,23,05,41,5.70
2010,03,23,05,42,5.70
2010,03,23,05,43,5.70
2010,03,23,05,44,5.70
2010,03,23,05,45,5.70
2010,03,23,05,46,5.70
2010,03,23,05,47,5.70
2010,03,23,05,48,5.70
2010,03,23,05,49,5.70
2010,03,23,05,50,5.70
2010,03,23,05,51,5.80
2010,03,23,05,52,5.80
2010,03,23,05,53,5.80
2010,03,23,05,54,5.80
2010,03,23,05,55,5.80
2010,03,23,05,56,5.90
2010,03,23,05,57,5.90
2010,03,23,05,58,5.90
2010,03,23,05,59,6.00
2010,03,23,06,00,6.00
2010,03,23,06,01,6.10
2010,03,23,06,02,6.10
2010,03,23,06,03,6.20
2010,03,23,06,04,6.20
2010,03,23,06,05,6.20
2010,03,23,06,06,6.30
2010,03,23,06,07,6.30
2010,03,23,06,08,6.30
2010,03,23,06,09,6.30
2010,03,23,06,10,6.30
2010,03,23,06,11,6.30
2010,03,23,06,12,6.30
2010,03,23,06,13,6.30
2010,03,23,06,14,6.30
2010,03,23,06,15,6.20
2010,03,23,06,16,6.20
2010,03,23,06,17,6.20
2010,03,23,06,18,6.20
2010,03,23,06,19,6.20
2010,03,23,06,20,6.20
2010,03,23,06,21,6.20
2010,03,23,06,22,6.20
2010,03,23,06,23,6.20
2010,03,23,06,24,6.20
2010,03,23,06,25,6.20
2010,03,23,06,26,6.20
2010,03,23,06,27,6.10
2010,03,23,06,28,6.10
2010,03,23,06,29,6.20
2010,03,23,06,30,6.20
2010,03,23,06,31,6.20
2010,03,23,06,32,6.20
2010,03,23,06,33,6.20
2010,03,23,06,34,6.20
2010,03,23,06,35,6.20
2010,03,23,06,36,6.20
2010,03,23,06,37,6.20
2010,03,23,06,38,6.20
2010,03,23,06,39,6.20
2010,03,23,06,40,6.20
2010,03,23,06,41,6.20
2010,03,23,06,42,6.10
2010,03,23,06,43,6.10
2010,03,23,06,44,6.10
2010,03,23,06,45,6.00
2010,03,23,06,46,6.00
2010,03,23,06,47,5.90
2010,03,23,06,48,5.90
2010,03,23,06,49,5.90
2010,03,23,06,50,5.80
2010,03,23,06,51,5.80
2010,03,23,06,52,5.70
2010,03,23,06,53,5.70
2010,03,23,06,54,5.60
2010,03,23,06,55,5.60
2010,03,23,06,56,5.50
2010,03,23,06,57,5.50
2010,03,23,06,58,5.50
2010,03,23,06,59,5.40
2010,03,23,07,00,5.40
2010,03,23,07,01,5.30
2010,03,23,07,02,5.30
2010,03,23,07,03,5.20
2010,03,23,07,04,5.10
2010,03,23,07,05,5.10
2010,03,23,07,06,4.90
2010,03,23,07,07,4.90
2010,03,23,07,08,4.90
2010,03,23,07,09,4.80
2010,03,23,07,10,4.80
2010,03,23,07,11,4.70
2010,03,23,07,12,4.70
2010,03,23,07,13,4.70
2010,03,23,07,14,4.60
2010,03,23,07,15,4.60
2010,03,23,07,16,4.60
2010,03,23,07,17,4.60
2010,03,23,07,18,4.60
2010,03,23,07,19,4.60
2010,03,23,07,20,4.60
2010,03,23,07,21,4.60
2010,03,23,07,22,4.60
2010,03,23,07,23,4.60
2010,03,23,07,24,4.60
2010,03,23,07,25,4.60
2010,03,23,07,26,4.60
2010,03,23,07,27,4.60
2010,03,23,07,28,4.60
2010,03,23,07,29,4.60
2010,03,23,07,30,4.60
2010,03,23,07,31,4.60
2010,03,23,07,32,4.70
2010,03,23,07,33,4.70
2010,03,23,07,34,4.70
2010,03,23,07,35,4.70
2010,03,23,07,36,4.60
2010,03,23,07,37,4.60
2010,03,23,07,38,4.60
2010,03,23,07,39,4.60
2010,03,23,07,40,4.60
2010,03,23,07,41,4.60
2010,03,23,07,42,4.60
2010,03,23,07,43,4.60
2010,03,23,07,44,4.60
2010,03,23,07,45,4.60
2010,03,23,07,46,4.70
2010,03,23,07,47,4.70
2010,03,23,07,48,4.70
2010,03,23,07,49,4.70
2010,03,23,07,50,4.70
2010,03,23,07,51,4.80
2010,03,23,07,52,4.80
2010,03,23,07,53,4.80
2010,03,23,07,54,4.80
2010,03,23,07,55,4.70
2010,03,23,07,56,4.70
2010,03,23,07,57,4.70
2010,03,23,07,58,4.70
2010,03,23,07,59,4.70
2010,03,23,08,00,4.70
2010,03,23,08,01,4.70
2010,03,23,08,02,4.70
2010,03,23,08,03,4.70
2010,03,23,08,04,4.80
2010,03,23,08,05,4.80
2010,03,23,08,06,4.80
2010,03,23,08,07,4.80
2010,03,23,08,08,4.80
2010,03,23,08,09,4.80
2010,03,23,08,10,4.80
2010,03,23,08,11,4.90
2010,03,23,08,12,4.90
2010,03,23,08,13,4.90
2010,03,23,08,14,4.90
2010,03,23,08,15,4.90
2010,03,23,08,16,4.90
2010,03,23,08,17,4.90
2010,03,23,08,18,4.90
2010,03,23,08,19,4.90
2010,03,23,08,20,5.10
2010,03,23,08,21,5.10
2010,03,23,08,22,5.10
2010,03,23,08,23,5.10
2010,03,23,08,24,5.10
2010,03,23,08,25,5.20
2010,03,23,08,26,5.20
2010,03,23,08,27,5.20
2010,03,23,08,28,5.30
2010,03,23,08,29,5.30
2010,03,23,08,30,5.30
2010,03,23,08,31,5.30
2010,03,23,08,32,5.30
2010,03,23,08,33,5.40
2010,03,23,08,34,5.40
2010,03,23,08,35,5.40
2010,03,23,08,36,5.50
2010,03,23,08,37,5.50
2010,03,23,08,38,5.60
2010,03,23,08,39,5.60
2010,03,23,08,40,5.70
2010,03,23,08,41,5.70
2010,03,23,08,42,5.70
2010,03,23,08,43,5.80
2010,03,23,08,44,5.90
2010,03,23,08,45,6.00
2010,03,23,08,46,6.00
2010,03,23,08,47,6.10
2010,03,23,08,48,6.20
2010,03,23,08,49,6.20
2010,03,23,08,50,6.30
2010,03,23,08,51,6.40
2010,03,23,08,52,6.50
2010,03,23,08,53,6.60
2010,03,23,08,54,6.70
2010,03,23,08,55,6.80
2010,03,23,08,57,6.90
2010,03,23,08,58,7.00
2010,03,23,08,59,7.00
2010,03,23,09,00,7.10
2010,03,23,09,01,7.30
2010,03,23,09,02,7.30
2010,03,23,09,03,7.40
2010,03,23,09,04,7.40
2010,03,23,09,05,7.50
2010,03,23,09,06,7.50
2010,03,23,09,07,7.60
2010,03,23,09,08,7.60
2010,03,23,09,09,7.70
2010,03,23,09,10,7.70
2010,03,23,09,11,7.80
2010,03,23,09,12,7.80
2010,03,23,09,13,7.90
2010,03,23,09,14,8.00
2010,03,23,09,15,8.00
2010,03,23,09,16,8.10
2010,03,23,09,17,8.10
2010,03,23,09,18,8.10
2010,03,23,09,19,8.20
2010,03,23,09,20,8.20
2010,03,23,09,21,8.20
2010,03,23,09,22,8.20
2010,03,23,09,23,8.30
2010,03,23,09,24,8.30
2010,03,23,09,25,8.40
2010,03,23,09,26,8.40
2010,03,23,09,27,8.40
2010,03,23,09,28,8.50
2010,03,23,09,29,8.50
2010,03,23,09,30,8.40
2010,03,23,09,31,8.40
2010,03,23,09,32,8.40
2010,03,23,09,33,8.40
2010,03,23,09,34,8.50
2010,03,23,09,35,8.50
2010,03,23,09,36,8.60
2010,03,23,09,37,8.70
2010,03,23,09,38,8.70
2010,03,23,09,39,8.90
2010,03,23,09,40,8.90
2010,03,23,09,41,9.00
2010,03,23,09,42,9.10
2010,03,23,09,43,9.20
2010,03,23,09,44,9.30
2010,03,23,09,45,9.40
2010,03,23,09,46,9.40
2010,03,23,09,47,9.50
2010,03,23,09,48,9.60
2010,03,23,09,49,9.70
2010,03,23,09,50,9.70
2010,03,23,09,51,9.70
2010,03,23,09,52,9.70
2010,03,23,09,53,9.80
2010,03,23,09,54,9.90
2010,03,23,09,55,10.00
2010,03,23,09,56,10.10
2010,03,23,09,57,10.20
2010,03,23,09,58,10.20
2010,03,23,09,59,10.30
2010,03,23,10,00,10.30
2010,03,23,10,01,10.20
2010,03,23,10,02,10.20
2010,03,23,10,03,10.10
2010,03,23,10,04,10.10
2010,03,23,10,05,10.10
2010,03,23,10,06,10.10
2010,03,23,10,07,10.20
2010,03,23,10,08,10.20
2010,03,23,10,09,10.10
2010,03,23,10,10,10.10
2010,03,23,10,11,10.10
2010,03,23,10,12,10.00
2010,03,23,10,13,10.00
2010,03,23,10,14,9.90
2010,03,23,10,15,9.90
2010,03,23,10,16,9.90
2010,03,23,10,17,9.90
2010,03,23,10,18,9.90
2010,03,23,10,19,9.90
2010,03,23,10,20,9.90
2010,03,23,10,21,9.90
2010,03,23,10,22,9.80
2010,03,23,10,23,9.80
2010,03,23,10,24,9.80
2010,03,23,10,25,9.80
2010,03,23,10,26,9.70
2010,03,23,10,27,9.70
2010,03,23,10,28,9.70
2010,03,23,10,29,9.70
2010,03,23,10,30,9.80
2010,03,23,10,31,9.80
2010,03,23,10,32,9.80
2010,03,23,10,33,9.80
2010,03,23,10,34,9.90
2010,03,23,10,35,9.90
2010,03,23,10,36,9.90
2010,03,23,10,37,9.80
2010,03,23,10,38,9.80
2010,03,23,10,39,9.90
2010,03,23,10,40,9.90
2010,03,23,10,41,9.90
2010,03,23,10,42,9.90
2010,03,23,10,43,10.00
2010,03,23,10,44,10.10
2010,03,23,10,45,10.10
2010,03,23,10,46,10.10
2010,03,23,10,47,10.10
2010,03,23,10,48,10.20
2010,03,23,10,49,10.20
2010,03,23,10,50,10.20
2010,03,23,10,51,10.30
2010,03,23,10,52,10.30
2010,03,23,10,53,10.20
2010,03,23,10,54,10.10
2010,03,23,10,55,10.10
2010,03,23,10,56,10.10
2010,03,23,10,57,10.10
2010,03,23,10,58,10.10
2010,03,23,10,59,10.10
2010,03,23,11,00,10.10
2010,03,23,11,01,10.10
2010,03,23,11,02,10.20
2010,03,23,11,03,10.20
2010,03,23,11,04,10.30
2010,03,23,11,05,10.40
2010,03,23,11,06,10.40
2010,03,23,11,07,10.40
2010,03,23,11,08,10.30
2010,03,23,11,09,10.20
2010,03,23,11,10,10.30
2010,03,23,11,11,10.30
2010,03,23,11,12,10.30
2010,03,23,11,13,10.30
2010,03,23,11,14,10.30
2010,03,23,11,15,10.10
2010,03,23,11,16,10.10
2010,03,23,11,17,10.10
2010,03,23,11,18,10.10
2010,03,23,11,19,10.00
2010,03,23,11,20,9.80
2010,03,23,11,21,9.70
2010,03,23,11,22,9.80
2010,03,23,11,23,9.80
2010,03,23,11,24,9.80
2010,03,23,11,25,9.90
2010,03,23,11,26,9.90
2010,03,23,11,27,9.80
2010,03,23,11,28,9.80
2010,03,23,11,29,9.70
2010,03,23,11,30,9.70
2010,03,23,11,31,9.60
2010,03,23,11,32,9.70
2010,03,23,11,33,9.70
2010,03,23,11,34,9.80
2010,03,23,11,35,9.90
2010,03,23,11,36,9.90
2010,03,23,11,37,9.90
2010,03,23,11,38,9.90
2010,03,23,11,39,9.70
2010,03,23,11,40,9.60
2010,03,23,11,41,9.60
2010,03,23,11,42,9.70
2010,03,23,11,43,9.70
2010,03,23,11,44,9.80
2010,03,23,11,45,9.80
2010,03,23,11,46,9.90
2010,03,23,11,47,9.90
2010,03,23,11,48,10.00
2010,03,23,11,49,10.10
2010,03,23,11,50,10.10
2010,03,23,11,51,9.90
2010,03,23,11,52,9.90
2010,03,23,11,53,9.80
2010,03,23,11,54,9.70
2010,03,23,11,55,9.60
2010,03,23,11,56,9.60
2010,03,23,11,57,9.50
2010,03,23,11,58,9.50
2010,03,23,11,59,9.40
2010,03,23,12,00,9.50
2010,03,23,12,01,9.60
2010,03,23,12,02,9.70
2010,03,23,12,03,9.80
2010,03,23,12,04,10.00
2010,03,23,12,05,10.10
2010,03,23,12,06,10.10
2010,03,23,12,07,10.10
2010,03,23,12,08,10.10
2010,03,23,12,09,10.10
2010,03,23,12,10,9.90
2010,03,23,12,11,9.90
2010,03,23,12,12,9.80
2010,03,23,12,13,9.60
2010,03,23,12,14,9.50
2010,03,23,12,15,9.40
2010,03,23,12,16,9.60
2010,03,23,12,17,9.70
2010,03,23,12,18,9.70
2010,03,23,12,19,9.70
2010,03,23,12,20,9.70
2010,03,23,12,21,9.70
2010,03,23,12,22,9.70
2010,03,23,12,23,9.70
2010,03,23,12,24,9.70
2010,03,23,12,25,9.70
2010,03,23,12,26,9.80
2010,03,23,12,27,10.00
2010,03,23,12,28,10.10
2010,03,23,12,29,10.10
2010,03,23,12,30,10.10
2010,03,23,12,31,10.10
2010,03,23,12,32,10.20
2010,03,23,12,33,10.40
2010,03,23,12,34,10.40
2010,03,23,12,35,10.50
2010,03,23,12,36,10.40
2010,03,23,12,37,10.40
2010,03,23,12,38,10.50
2010,03,23,12,39,10.60
2010,03,23,12,40,10.70
2010,03,23,12,41,10.70
2010,03,23,12,42,10.60
2010,03,23,12,43,10.50
2010,03,23,12,44,10.30
2010,03,23,12,45,10.30
2010,03,23,12,46,10.40
2010,03,23,12,47,10.40
2010,03,23,12,48,10.30
2010,03,23,12,49,10.30
2010,03,23,12,50,10.40
2010,03,23,12,51,10.40
2010,03,23,12,52,10.20
2010,03,23,12,53,10.10
2010,03,23,12,54,10.20
2010,03,23,12,55,10.10
2010,03,23,12,56,10.10
2010,03,23,12,57,10.10
2010,03,23,12,58,10.10
2010,03,23,12,59,10.20
2010,03,23,13,00,10.20
2010,03,23,13,01,10.20
2010,03,23,13,02,10.10
2010,03,23,13,03,10.10
2010,03,23,13,04,10.20
2010,03,23,13,05,10.30
2010,03,23,13,06,10.40
2010,03,23,13,07,10.30
2010,03,23,13,08,10.20
2010,03,23,13,09,10.00
2010,03,23,13,10,9.90
2010,03,23,13,11,9.90
2010,03,23,13,12,10.00
2010,03,23,13,13,10.10
2010,03,23,13,14,10.20
2010,03,23,13,15,10.20
2010,03,23,13,16,10.20
2010,03,23,13,17,10.10
2010,03,23,13,18,10.10
2010,03,23,13,19,10.10
2010,03,23,13,20,10.20
2010,03,23,13,21,10.20
2010,03,23,13,22,10.00
2010,03,23,13,23,9.90
2010,03,23,13,24,9.90
2010,03,23,13,25,9.90
2010,03,23,13,26,9.90
2010,03,23,13,27,9.90
2010,03,23,13,28,10.10
2010,03,23,13,29,10.10
2010,03,23,13,30,10.10
2010,03,23,13,31,10.10
2010,03,23,13,32,9.90
2010,03,23,13,33,9.90
2010,03,23,13,34,9.90
2010,03,23,13,35,9.90
2010,03,23,13,36,9.90
2010,03,23,13,37,9.90
2010,03,23,13,38,9.90
2010,03,23,13,39,10.00
2010,03,23,13,40,10.20
2010,03,23,13,41,10.10
2010,03,23,13,42,10.10
2010,03,23,13,43,10.10
2010,03,23,13,44,10.20
2010,03,23,13,45,10.40
2010,03,23,13,46,10.60
2010,03,23,13,47,10.60
2010,03,23,13,48,10.60
2010,03,23,13,49,10.40
2010,03,23,13,50,10.30
2010,03,23,13,51,10.20
2010,03,23,13,52,10.10
2010,03,23,13,53,10.10
2010,03,23,13,54,10.10
2010,03,23,13,55,10.10
2010,03,23,13,56,10.20
2010,03,23,13,57,10.30
2010,03,23,13,58,10.30
2010,03,23,13,59,10.50
2010,03,23,14,00,10.60
2010,03,23,14,01,10.50
2010,03,23,14,02,10.40
2010,03,23,14,03,10.40
2010,03,23,14,04,10.60
2010,03,23,14,05,10.70
2010,03,23,14,06,10.80
2010,03,23,14,07,11.00
2010,03,23,14,08,11.10
2010,03,23,14,09,11.20
2010,03,23,14,10,11.20
2010,03,23,14,11,11.30
2010,03,23,14,12,11.40
2010,03,23,14,13,11.40
2010,03,23,14,14,11.40
2010,03,23,14,15,11.40
2010,03,23,14,16,11.50
2010,03,23,14,17,11.60
2010,03,23,14,18,11.70
2010,03,23,14,19,11.70
2010,03,23,14,20,11.60
2010,03,23,14,21,11.70
2010,03,23,14,22,11.80
2010,03,23,14,23,11.80
2010,03,23,14,24,11.70
2010,03,23,14,25,11.70
2010,03,23,14,26,11.60
2010,03,23,14,27,11.60
2010,03,23,14,28,11.60
2010,03,23,14,29,11.60
2010,03,23,14,30,11.60
2010,03,23,14,31,11.70
2010,03,23,14,32,11.70
2010,03,23,14,33,11.60
2010,03,23,14,34,11.60
2010,03,23,14,35,11.60
2010,03,23,14,36,11.60
2010,03,23,14,37,11.70
2010,03,23,14,38,11.80
2010,03,23,14,39,11.90
2010,03,23,14,40,12.00
2010,03,23,14,41,12.10
2010,03,23,14,42,12.20
2010,03,23,14,43,12.30
2010,03,23,14,44,12.40
2010,03,23,14,45,12.50
2010,03,23,14,46,12.60
2010,03,23,14,47,12.70
2010,03,23,14,48,12.80
2010,03,23,14,49,12.90
2010,03,23,14,50,13.00
2010,03,23,14,51,13.00
2010,03,23,14,52,13.00
2010,03,23,14,53,13.00
2010,03,23,14,54,13.10
2010,03,23,14,55,13.10
2010,03,23,14,56,13.20
2010,03,23,14,57,13.20
2010,03,23,14,58,13.10
2010,03,23,14,59,13.00
2010,03,23,15,00,13.00
2010,03,23,15,01,12.80
2010,03,23,15,02,12.70
2010,03,23,15,03,12.70
2010,03,23,15,04,12.60
2010,03,23,15,05,12.60
2010,03,23,15,06,12.50
2010,03,23,15,07,12.50
2010,03,23,15,08,12.40
2010,03,23,15,09,12.40
2010,03,23,15,10,12.40
2010,03,23,15,11,12.50
2010,03,23,15,12,12.50
2010,03,23,15,13,12.60
2010,03,23,15,14,12.60
2010,03,23,15,15,12.60
2010,03,23,15,16,12.60
2010,03,23,15,17,12.60
2010,03,23,15,18,12.50
2010,03,23,15,19,12.50
2010,03,23,15,20,12.60
2010,03,23,15,21,12.70
2010,03,23,15,22,12.70
2010,03,23,15,23,12.60
2010,03,23,15,24,12.60
2010,03,23,15,25,12.60
2010,03,23,15,26,12.70
2010,03,23,15,27,12.60
2010,03,23,15,28,12.60
2010,03,23,15,29,12.50
2010,03,23,15,30,12.40
2010,03,23,15,31,12.40
2010,03,23,15,32,12.30
2010,03,23,15,33,12.30
2010,03,23,15,34,12.30
2010,03,23,15,35,12.30
2010,03,23,15,36,12.30
2010,03,23,15,37,12.30
2010,03,23,15,38,12.30
2010,03,23,15,39,12.30
2010,03,23,15,40,12.30
2010,03,23,15,41,12.30
2010,03,23,15,42,12.30
2010,03,23,15,43,12.30
2010,03,23,15,44,12.30
2010,03,23,15,45,12.30
2010,03,23,15,46,12.20
2010,03,23,15,47,12.10
2010,03,23,15,48,12.10
2010,03,23,15,49,12.10
2010,03,23,15,50,12.20
2010,03,23,15,51,12.20
2010,03,23,15,52,12.20
2010,03,23,15,53,12.30
2010,03,23,15,54,12.30
2010,03,23,15,55,12.30
2010,03,23,15,56,12.30
2010,03,23,15,57,12.30
2010,03,23,15,58,12.30
2010,03,23,15,59,12.30
2010,03,23,16,00,12.30
2010,03,23,16,01,12.30
2010,03,23,16,02,12.40
2010,03,23,16,03,12.40
2010,03,23,16,04,12.30
2010,03,23,16,05,12.30
2010,03,23,16,06,12.20
2010,03,23,16,07,12.10
2010,03,23,16,08,12.10
2010,03,23,16,09,12.10
2010,03,23,16,10,12.10
2010,03,23,16,11,12.10
2010,03,23,16,12,12.20
2010,03,23,16,13,12.30
2010,03,23,16,14,12.30
2010,03,23,16,15,12.40
2010,03,23,16,16,12.40
2010,03,23,16,17,12.50
2010,03,23,16,18,12.50
2010,03,23,16,19,12.60
2010,03,23,16,20,12.70
2010,03,23,16,21,12.70
2010,03,23,16,22,12.70
2010,03,23,16,23,12.70
2010,03,23,16,24,12.70
2010,03,23,16,25,12.70
2010,03,23,16,26,12.70
2010,03,23,16,27,12.60
2010,03,23,16,28,12.40
2010,03,23,16,29,12.30
2010,03,23,16,30,12.10
2010,03,23,16,31,12.00
2010,03,23,16,32,11.80
2010,03,23,16,33,11.60
2010,03,23,16,34,11.50
2010,03,23,16,35,11.30
2010,03,23,16,36,11.20
2010,03,23,16,37,11.00
2010,03,23,16,38,10.80
2010,03,23,16,39,10.70
2010,03,23,16,40,10.60
2010,03,23,16,41,10.60
2010,03,23,16,42,10.50
2010,03,23,16,43,10.40
2010,03,23,16,44,10.40
2010,03,23,16,45,10.40
2010,03,23,16,46,10.40
2010,03,23,16,47,10.40
2010,03,23,16,48,10.40
2010,03,23,16,49,10.40
2010,03,23,16,50,10.50
2010,03,23,16,51,10.60
2010,03,23,16,52,10.50
2010,03,23,16,53,10.40
2010,03,23,16,54,10.40
2010,03,23,16,55,10.40
2010,03,23,16,56,10.40
2010,03,23,16,57,10.50
2010,03,23,16,58,10.60
2010,03,23,16,59,10.70
2010,03,23,17,00,10.70
2010,03,23,17,01,10.70
2010,03,23,17,02,10.60
2010,03,23,17,03,10.70
2010,03,23,17,04,10.70
2010,03,23,17,05,10.60
2010,03,23,17,06,10.60
2010,03,23,17,07,10.60
2010,03,23,17,08,10.60
2010,03,23,17,09,10.60
2010,03,23,17,10,10.50
2010,03,23,17,11,10.40
2010,03,23,17,12,10.40
2010,03,23,17,13,10.30
2010,03,23,17,14,10.30
2010,03,23,17,15,10.20
2010,03,23,17,16,10.20
2010,03,23,17,17,10.10
2010,03,23,17,18,10.30
2010,03,23,17,19,10.40
2010,03,23,17,20,10.30
2010,03,23,17,21,10.20
2010,03,23,17,22,10.20
2010,03,23,17,23,10.10
2010,03,23,17,24,10.10
2010,03,23,17,25,10.20
2010,03,23,17,26,10.20
2010,03,23,17,27,10.20
2010,03,23,17,28,10.20
2010,03,23,17,29,10.20
2010,03,23,17,30,10.30
2010,03,23,17,31,10.40
2010,03,23,17,32,10.40
2010,03,23,17,33,10.40
2010,03,23,17,34,10.40
2010,03,23,17,35,10.40
2010,03,23,17,36,10.40
2010,03,23,17,37,10.50
2010,03,23,17,38,10.60
2010,03,23,17,39,10.60
2010,03,23,17,40,10.60
2010,03,23,17,41,10.70
2010,03,23,17,42,10.70
2010,03,23,17,43,10.80
2010,03,23,17,44,10.90
2010,03,23,17,45,10.90
2010,03,23,17,46,10.90
2010,03,23,17,47,11.00
2010,03,23,17,48,11.10
2010,03,23,17,49,11.10
2010,03,23,17,50,11.10